Simultaneous Nadir Overpasses (SNOs) Predictions

Prediction of SNOs between GOES-16 and NOAA-19 Satellite Orbit:

Table of predicted SNOs for the next 14.0 days since TLE Epoch: 5/11/2024
Index Date Time (GOES-16) GOES-16 Lat,Lon NOAA-19 Lat,Lon Distance(km) Time Diff (sec)
1 05/11/2024 14:05:26 0.06, -75.20 -0.48, -72.96 256.58 80
2 05/14/2024 02:25:04 -0.05, -75.21 -0.61, -77.63 276.09 80
3 05/15/2024 02:10:07 -0.04, -75.22 0.10, -74.65 65.48 80
4 05/16/2024 01:57:50 -0.04, -75.23 0.76, -71.66 407.38 80
5 05/17/2024 14:29:30 0.04, -75.25 0.94, -79.27 457.89 80
6 05/18/2024 14:17:13 0.04, -75.27 0.26, -76.28 115.35 80
7 05/19/2024 14:07:35 0.04, -75.28 -0.43, -73.29 227.43 80
8 05/22/2024 02:27:07 -0.03, -75.32 -0.61, -77.94 298.62 80
9 05/23/2024 02:12:08 -0.03, -75.34 0.09, -74.95 44.88 80
10 05/24/2024 01:59:49 -0.03, -75.36 0.74, -71.95 388.26 80
